OBJECT A

Last updated on Sat Jul 16 2022 00:02:07 GMT+0000 (Coordinated Universal Time)

1 53113U 22081A 22196.84547252 -.00003686 11655-4 00000+0 0 9998 2 53113 51.6563 194.8980 0045737 238.1504 194.2839 16.13657096 133

Satellite not in orbit